Weather History for Cocoa Beach, FL

Change the Weather History Date:

Monday, March 18, 2013

  Actual Average Record
Temperature  
Mean Temperature 69 °F -  
Max Temperature 77 °F 74 °F 82 °F (2003)
Min Temperature 64 °F 61 °F 53 °F (2007)
Cooling Degree Days 4    
Growing Degree Days 19 (Base 50)    
Moisture  
Dew Point 63 °F    
Average Humidity 79    
Maximum Humidity 88    
Minimum Humidity 68    
Precipitation  
Precipitation 0.00 in - - ()
Sea Level Pressure  
Sea Level Pressure 30.02 in    
Wind  
Wind Speed 10 mph (SSW)    
Max Wind Speed 16 mph    
Max Gust Speed -    
Visibility 10 miles    
Events Rain    
Averages and records for this station are not official NWS values.
T = Trace of Precipitation, MM = Missing Value Source: NWS Daily Summary

Daily Weather History Graph

Daily Weather History Graph

Search for Another Location

Airport:

Trip Planner

Search our weather history database for the weather conditions in past years. The results will help you decide how hot, cold, wet, or windy it might be!

Date:

Astronomy

Mar. 18, 2013 Rise Set
Actual Time 7:28 AM EDT 7:32 PM EDT
Civil Twilight 7:04 AM EDT 7:56 PM EDT
Nautical Twilight 6:37 AM EDT 8:23 PM EDT
Astronomical Twilight 6:10 AM EDT 8:51 PM EDT
Moon 11:54 AM EDT (3/18) 1:03 AM EDT (3/18)
Length of Visible Light 12h 51m
Length of Day
12h 04m
Waxing Crescent, 40% of the Moon is Illuminated
Mar 18
Waxing Crescent
Mar 19
First Quarter
Mar 27
Full
Apr 3
Last Quarter
Apr 10
New

Hourly Weather History & Observations

Time (EDT) Temp. Dew Point Humidity Pressure Visibility Wind Dir Wind Speed Gust Speed Precip Events Conditions
12:58 AM 68.9 °F 58.5 °F 69% 30.09 in 10.0 mi South 8.1 mph - N/A   Scattered Clouds
1:19 AM 68.0 °F 59.0 °F 73% 30.08 in 10.0 mi SSW 8.1 mph - N/A   Light Drizzle
1:29 AM 68.0 °F 59.0 °F 73% 30.06 in 10.0 mi SSE 9.2 mph - N/A   Partly Cloudy
1:58 AM 68.7 °F 57.9 °F 68% 30.08 in 10.0 mi South 9.2 mph - N/A   Clear
2:58 AM 68.0 °F 58.5 °F 71% 30.06 in 10.0 mi South 12.7 mph - N/A   Mostly Cloudy
3:36 AM 68.0 °F 59.0 °F 73% 30.02 in 10.0 mi South 11.5 mph - N/A   Light Drizzle
3:52 AM 68.0 °F 60.8 °F 78% 30.00 in 10.0 mi SSE 13.8 mph - N/A   Partly Cloudy
3:58 AM 68.0 °F 60.4 °F 77% 30.01 in 10.0 mi SSE 12.7 mph - N/A   Partly Cloudy
3:59 AM 68.0 °F 60.8 °F 78% 30.00 in 10.0 mi SSE 11.5 mph - N/A   Light Drizzle
4:09 AM 68.0 °F 60.8 °F 78% 30.00 in 10.0 mi South 11.5 mph - N/A   Partly Cloudy
4:58 AM 67.1 °F 60.4 °F 79% 30.04 in 10.0 mi WSW 5.8 mph - N/A   Partly Cloudy
5:11 AM 66.2 °F 60.8 °F 83% 30.04 in 10.0 mi WSW 6.9 mph - N/A Rain Light Rain
5:21 AM 66.2 °F 60.8 °F 83% 30.04 in 10.0 mi West 5.8 mph - N/A   Mostly Cloudy
5:54 AM 66.2 °F 60.8 °F 83% 30.05 in 10.0 mi West 5.8 mph - N/A   Light Drizzle
5:58 AM 65.8 °F 61.3 °F 85% 30.06 in 10.0 mi West 4.6 mph - N/A   Light Drizzle
6:04 AM 66.2 °F 60.8 °F 83% 30.06 in 10.0 mi West 6.9 mph - N/A   Scattered Clouds
6:08 AM 66.2 °F 60.8 °F 83% 30.05 in 10.0 mi WSW 4.6 mph - N/A Rain Light Rain
6:41 AM 64.4 °F 60.8 °F 88% 30.05 in 10.0 mi SSW 12.7 mph - N/A Rain Light Rain
6:58 AM 65.1 °F 61.5 °F 88% 30.06 in 10.0 mi South 13.8 mph - N/A   Light Drizzle
6:59 AM 64.4 °F 60.8 °F 88% 30.04 in 10.0 mi South 13.8 mph - N/A   Partly Cloudy
7:58 AM 65.7 °F 61.7 °F 87% 30.06 in 10.0 mi SSW 8.1 mph - N/A   Mostly Cloudy
8:58 AM 66.9 °F 62.4 °F 85% 30.09 in 10.0 mi SSW 9.2 mph - N/A   Partly Cloudy
9:58 AM 71.4 °F 63.5 °F 76% 30.06 in 10.0 mi South 13.8 mph - N/A   Partly Cloudy
10:58 AM 74.1 °F 63.7 °F 70% 30.08 in 10.0 mi South 15.0 mph - N/A   Partly Cloudy
11:58 AM 73.8 °F 64.6 °F 73% 30.06 in 10.0 mi SSE 12.7 mph - N/A   Partly Cloudy
12:58 PM 74.5 °F 64.6 °F 71% 30.04 in 10.0 mi SSE 16.1 mph - N/A   Partly Cloudy
1:58 PM 73.9 °F 64.8 °F 73% 30.03 in 10.0 mi SSE 12.7 mph - N/A   Partly Cloudy
2:58 PM 73.8 °F 65.8 °F 76% 30.01 in 10.0 mi SSE 12.7 mph - N/A   Partly Cloudy
3:58 PM 74.5 °F 65.8 °F 74% 29.96 in 10.0 mi SE 6.9 mph - N/A   Clear
4:58 PM 73.4 °F 65.7 °F 77% 29.96 in 10.0 mi SE 9.2 mph - N/A   Clear
5:58 PM 72.0 °F 66.9 °F 84% 29.96 in 10.0 mi SSE 16.1 mph - N/A   Clear
6:41 PM 71.6 °F 66.2 °F 83% 29.97 in 10.0 mi SSE 12.7 mph - N/A   Light Drizzle
6:58 PM 71.4 °F 66.9 °F 86% 29.99 in 9.0 mi South 4.6 mph - N/A Rain Light Rain
7:16 PM 71.6 °F 68.0 °F 88% 29.96 in 10.0 mi South 8.1 mph - N/A   Scattered Clouds
7:58 PM 72.0 °F 64.8 °F 78% 29.98 in 10.0 mi SSW 10.4 mph - N/A   Clear
8:36 PM 71.6 °F 64.4 °F 78% 29.95 in 10.0 mi WSW 8.1 mph - N/A   Light Drizzle
8:45 PM 71.6 °F 64.4 °F 78% 29.97 in 10.0 mi WNW 10.4 mph - N/A   Partly Cloudy
8:58 PM 71.2 °F 64.9 °F 80% 29.99 in 10.0 mi SW 6.9 mph - N/A   Scattered Clouds
9:58 PM 70.2 °F 65.5 °F 85% 29.98 in 10.0 mi SSW 9.2 mph - N/A   Clear
10:58 PM 68.5 °F 63.7 °F 84% 29.96 in 10.0 mi South 15.0 mph - N/A   Clear
11:58 PM 68.2 °F 63.9 °F 86% 29.96 in 10.0 mi WSW 12.7 mph - N/A   Clear